Temperature
26 27 27 28 28 28 27 27 26 26 26 26 26 25 26 25 24 24 23 23 22 20 19 18 18 17 17 17 17 16 16 16 16 16 15 15 15 15 15 15 15 15 15 15
27 27 28 28 27 27 27 26 26 26 25 25 25 25 26 25 24 24 23 23 22 21 20 18 18 17 17 16 16 16 16 16 16 16 15 15 15 15 15 15 15 15 15 15
27 28 28 27 27 26 27 26 26 26 25 25 25 25 25 25 24 23 23 23 22 21 20 19 18 17 17 16 16 16 16 16 16 15 15 15 15 15 15 15 15 15 15 15
28 28 27 27 27 27 26 27 26 25 25 26 25 25 25 25 24 24 23 23 22 21 20 19 18 17 17 16 16 16 16 16 16 15 15 15 15 15 15 15 15 14 14 14
27 28 27 27 27 26 26 26 26 26 25 25 25 25 26 25 24 24 24 23 22 21 20 19 18 18 17 16 16 16 16 15 15 15 15 15 15 15 15 15 15 14 14 14
27 28 27 27 27 26 26 26 25 25 26 24 25 25 25 26 25 25 24 23 21 21 20 19 18 17 17 16 16 15 15 15 15 15 15 15 15 15 14 14 14 14 14 14
27 27 27 27 26 26 26 25 25 25 25 25 25 24 25 25 25 24 24 22 21 21 20 19 18 18 17 16 16 15 15 15 15 15 15 15 15 15 14 14 14 14 14 14
26 27 27 26 26 26 26 26 24 24 25 26 25 25 25 25 24 23 22 22 21 20 20 19 18 18 17 16 16 15 15 15 15 15 15 15 14 14 14 14 14 14 14 13
26 26 27 26 26 26 26 26 26 25 25 25 25 25 25 24 24 23 22 22 21 21 20 19 18 18 17 16 16 15 15 15 15 15 14 15 14 14 14 14 14 14 13 13
26 25 26 26 26 26 26 26 25 25 23 24 25 25 25 24 24 24 23 22 21 20 20 19 18 18 17 16 16 15 15 15 15 15 15 15 14 14 14 14 13 13 13 13
26 25 25 26 25 26 25 25 25 25 24 24 24 25 25 25 24 24 23 22 21 21 20 19 18 17 17 16 16 15 15 15 15 15 14 14 14 14 13 14 13 13 13 13
25 25 25 25 26 26 25 25 24 23 23 24 24 24 25 25 24 23 23 22 21 20 20 19 18 18 17 17 16 15 15 15 15 15 14 14 14 14 13 13 13 13 13 13
24 23 23 24 25 25 24 24 24 24 24 23 23 24 24 24 23 23 22 21 20 20 19 19 18 17 17 16 16 15 15 15 15 14 14 14 14 14 13 13 13 13 13 13
23 23 24 24 24 25 24 24 24 24 23 23 24 24 24 24 23 23 22 21 20 19 19 18 18 17 17 16 16 15 15 15 15 14 14 14 14 14 13 13 13 13 13 13
23 23 24 24 25 25 24 24 24 23 24 23 24 24 24 23 23 22 22 21 20 19 19 18 18 17 17 16 16 15 15 15 14 14 14 14 14 14 13 13 13 13 13 13
22 22 23 23 24 24 24 24 24 24 24 23 23 23 24 23 22 21 21 20 20 19 19 18 17 17 17 16 16 15 15 14 14 14 14 14 13 13 13 13 13 13 13 13
23 22 22 23 24 23 23 24 24 24 24 23 23 23 23 22 22 21 20 20 19 19 18 18 17 16 16 16 15 15 15 14 14 14 14 13 13 13 13 13 13 13 13 13
21 22 22 23 23 22 24 24 24 23 23 23 23 23 22 21 20 20 19 19 18 18 18 17 16 16 16 15 15 15 15 14 14 14 14 13 13 13 13 13 13 13 13 13
21 21 22 22 22 23 23 23 23 23 23 22 22 22 21 20 20 20 18 17 17 17 17 16 16 16 15 15 15 15 14 14 14 14 14 13 13 13 13 13 13 13 13 13
21 21 21 22 21 22 22 23 22 22 22 22 21 21 20 20 21 20 17 17 17 16 16 16 16 15 15 15 15 15 14 14 14 14 14 13 13 13 13 13 13 13 13 13
21 20 21 21 21 22 22 21 21 21 21 20 20 19 19 19 19 18 17 16 16 16 15 15 15 15 15 14 14 14 14 14 14 14 14 13 13 13 13 13 13 13 13 13
21 21 21 21 21 21 21 21 20 20 19 19 18 18 18 17 17 16 16 16 15 15 15 15 14 14 14 14 14 14 14 14 14 14 13 13 13 13 13 13 13 13 13 13
20 20 21 21 21 20 19 19 18 18 18 18 17 17 17 17 16 16 16 15 15 15 15 14 14 14 14 14 14 14 14 14 13 13 13 13 13 13 13 13 13 13 13 13
19 19 19 19 20 19 18 18 17 17 17 17 16 16 16 16 16 16 15 15 15 15 14 14 14 14 14 14 14 14 14 13 13 13 13 13 13 13 13 13 13 13 13 13
17 18 18 18 18 18 18 17 16 16 16 16 16 16 16 16 16 15 15 14 14 14 14 14 14 14 14 13 13 13 13 13 13 13 13 13 13 13 13 13 13 13 13 13
17 16 17 17 17 17 17 16 16 16 16 16 15 15 15 15 15 15 14 14 14 14 14 14 14 14 13 13 13 13 13 13 13 13 13 13 13 13 13 13 13 13 13 13
Wind_Speed
6 8 7 5 6 7 7 8 8 5 3 6 8 8 7 8 9 9 9 8 8 8 7 7 7 6 6 5 5 6 6 5 5 4 4 4 3 3 2 2 3 3 2 3
7 8 5 5 5 7 8 9 8 4 3 5 7 8 7 8 10 9 9 9 8 8 8 7 7 6 6 6 5 6 6 6 5 4 3 3 2 2 2 1 2 2 3 3
9 4 3 5 7 8 9 9 8 6 4 7 7 8 8 8 9 9 9 9 9 9 8 8 8 7 7 7 6 6 5 5 5 4 4 3 3 2 2 2 2 2 3 3
8 5 5 8 8 8 8 5 7 7 8 6 6 7 5 8 9 10 10 9 9 9 8 8 8 8 7 7 7 6 6 5 5 5 5 5 4 3 2 2 2 2 2 2
6 5 7 9 7 7 6 4 6 7 8 9 7 7 4 6 7 8 9 9 8 8 8 8 8 8 8 7 7 7 7 6 5 5 5 5 4 3 2 2 2 2 2 2
8 5 6 6 4 5 4 5 6 8 8 8 6 7 4 4 5 5 6 7 8 8 8 8 8 8 7 8 8 7 7 7 6 6 5 5 5 4 3 3 3 2 2 2
7 7 5 4 6 6 7 7 6 6 6 4 2 5 3 1 2 3 4 6 7 8 8 8 8 8 8 8 8 8 8 7 7 6 5 5 5 5 5 4 4 3 2 2
6 5 4 4 6 5 7 8 6 6 6 4 4 5 1 1 2 2 3 5 6 7 7 8 8 8 8 8 8 8 8 7 7 6 5 5 5 4 4 4 3 4 3 2
5 4 3 4 5 6 6 7 7 9 9 8 5 4 3 3 4 4 4 5 6 7 7 8 8 8 8 9 8 9 9 8 7 7 6 5 5 4 4 4 4 3 3 3
6 7 5 4 5 6 6 5 5 7 6 7 5 6 2 3 4 4 4 4 5 6 7 7 8 8 8 8 8 8 8 8 7 7 6 5 6 5 5 4 4 3 3 3
7 7 6 6 7 7 6 6 6 6 7 7 6 3 2 1 2 2 3 3 4 5 7 7 8 8 8 8 8 8 8 8 7 7 6 5 5 5 5 5 4 4 3 3
5 6 7 7 4 5 8 8 8 7 7 7 8 3 3 1 1 2 2 3 3 4 6 7 8 8 8 8 8 8 8 8 7 7 7 6 6 6 5 5 4 4 4 4
4 5 7 6 6 6 6 8 9 9 8 8 9 4 3 1 1 2 2 3 4 5 6 7 8 7 7 7 8 8 8 8 8 8 7 7 7 6 6 5 4 4 4 4
4 6 8 8 7 5 7 9 10 11 9 10 10 9 5 4 4 3 3 3 4 6 6 7 7 7 7 7 7 8 8 7 7 7 7 7 7 6 5 5 5 5 5 4
4 8 10 11 10 10 10 11 11 12 13 12 11 10 8 7 6 4 3 4 5 6 7 8 7 7 7 7 7 8 7 7 7 7 6 6 6 6 5 5 5 5 5 5
4 7 9 11 10 11 12 12 12 12 12 13 13 11 7 5 4 5 4 5 6 6 6 7 7 7 7 7 7 8 8 7 7 7 6 6 6 6 5 5 5 5 5 4
5 6 8 9 7 9 11 8 9 9 9 9 10 7 5 5 5 5 5 6 5 5 5 6 6 6 6 7 7 8 7 7 7 7 6 6 6 5 5 5 5 5 5 4
8 8 7 8 7 9 3 1 4 7 7 7 7 6 4 4 4 3 3 4 4 4 4 4 5 6 6 6 7 7 7 7 7 7 6 6 6 5 5 4 4 4 4 4
9 8 7 7 10 10 4 2 4 6 6 4 5 5 3 2 4 4 2 2 3 3 3 4 4 5 5 6 6 7 7 7 7 7 6 6 6 6 5 5 4 4 4 4
8 9 9 9 10 9 3 1 3 6 6 1 3 4 3 4 5 2 2 3 3 3 3 4 4 5 5 5 6 7 7 7 7 7 6 6 5 5 6 5 5 4 4 5
7 8 11 11 11 6 2 2 2 5 3 4 3 3 4 4 3 1 2 3 4 4 4 4 5 5 5 6 6 6 6 6 6 6 5 5 5 5 5 4 4 4 4 4
7 7 8 9 10 5 2 1 2 4 4 4 4 3 3 3 1 1 3 4 5 5 5 5 5 5 5 5 6 6 5 5 5 5 5 5 5 5 4 4 4 4 4 5
5 5 5 5 4 3 1 2 3 4 4 4 4 3 3 4 3 2 3 4 5 6 6 5 6 5 5 5 6 5 5 5 5 5 5 5 5 5 4 4 4 4 4 4
4 4 5 5 4 4 3 4 5 4 5 5 4 4 5 5 4 4 3 4 5 5 6 5 6 6 5 5 5 5 4 5 5 5 5 5 5 5 5 5 5 4 4 4
5 4 6 7 6 6 6 7 7 6 6 5 4 4 5 5 4 4 4 4 4 5 5 5 6 5 5 5 4 4 4 5 5 5 5 5 5 5 5 5 4 5 4 3
5 6 7 7 6 7 8 8 8 7 6 5 4 3 4 4 4 4 4 4 5 5 5 5 5 5 5 4 4 4 5 5 6 5 5 4 4 4 5 5 4 3 4 2
Wind_Direction
213 241 252 274 273 287 292 286 282 275 253 257 256 251 227 208 214 216 211 206 202 201 192 182 180 183 181 184 192 190 183 176 182 185 189 187 186 188 188 184 173 183 184 187
226 242 266 280 271 265 270 276 278 259 214 257 262 258 237 219 220 221 220 215 211 201 189 183 184 185 187 188 188 187 181 181 186 180 184 187 184 186 179 163 157 185 189 204
251 283 270 260 260 267 269 278 285 278 260 240 256 249 223 213 218 220 222 221 218 209 199 190 188 192 191 190 192 187 177 178 183 176 174 164 162 181 177 175 179 182 191 196
254 258 256 260 267 275 277 289 276 265 258 255 237 270 223 209 212 216 218 218 215 207 202 196 192 196 197 196 191 185 178 175 177 179 185 185 187 185 189 189 170 171 185 192
254 253 259 266 278 271 284 291 266 262 261 268 244 264 250 200 221 216 212 213 211 206 203 201 199 199 198 193 185 183 180 178 180 185 188 194 194 182 172 170 155 175 169 175
258 257 264 270 268 250 246 249 247 244 250 255 248 257 264 209 229 221 206 205 206 204 200 203 200 194 193 188 183 180 177 175 179 185 191 200 194 183 172 175 172 187 177 178
241 226 218 242 239 214 237 264 262 242 236 252 203 249 261 225 222 237 224 208 206 204 196 195 197 193 190 187 183 180 177 176 180 184 191 197 194 187 190 192 182 195 192 182
257 238 205 221 249 259 241 259 277 286 284 282 219 249 235 158 207 231 227 212 202 201 195 193 194 191 188 185 183 181 180 179 182 187 192 194 195 196 192 198 201 198 205 191
271 262 191 216 243 259 245 253 275 278 279 275 251 238 211 195 210 204 203 198 196 196 192 191 190 190 187 183 182 182 180 180 184 186 186 185 189 191 189 195 203 199 206 202
269 270 244 214 222 224 260 264 256 262 278 274 264 254 244 190 206 195 201 203 193 189 188 187 187 188 187 181 177 179 179 179 179 182 185 178 181 188 190 199 201 203 209 208
257 260 245 220 236 243 226 234 249 258 268 278 283 281 74 204 221 219 207 203 194 186 186 181 180 181 179 175 172 175 178 178 179 183 182 176 181 189 196 198 202 203 204 202
238 261 263 249 240 254 246 249 244 255 260 259 274 272 97 201 211 217 208 194 192 188 183 177 174 173 176 175 173 174 179 181 181 181 179 181 187 190 195 194 192 194 199 202
220 243 258 234 203 212 236 243 248 254 263 261 262 259 117 166 221 235 225 207 189 184 179 172 171 174 177 177 176 176 180 181 180 181 182 184 191 193 195 198 195 194 198 204
237 246 258 266 279 270 250 246 244 249 256 261 261 271 261 251 255 247 231 212 186 180 179 176 175 176 175 177 177 177 177 176 179 180 183 185 188 192 195 197 198 200 204 210
238 250 259 268 273 269 262 260 250 248 258 265 273 274 277 267 263 259 237 212 195 184 182 182 182 179 176 177 177 175 172 173 175 179 184 185 184 187 194 201 200 200 205 210
236 259 264 263 260 261 262 259 253 250 255 261 267 271 278 274 254 247 235 215 207 200 196 191 187 183 182 180 179 174 171 169 172 180 183 181 184 189 196 201 199 202 205 212
230 243 264 269 268 266 257 255 250 243 251 261 267 276 281 261 247 242 225 210 213 209 205 196 192 188 184 181 180 177 173 170 172 178 182 182 186 190 196 200 199 203 205 209
241 247 255 271 271 258 269 302 265 260 260 263 271 283 285 264 251 220 206 206 214 210 206 194 186 184 179 174 175 176 172 172 174 176 181 182 187 190 196 201 205 208 209 212
225 237 251 259 263 263 247 261 271 266 263 273 273 277 264 245 221 186 162 197 205 195 194 185 179 173 167 168 167 168 172 176 180 180 182 185 189 190 193 199 203 205 209 215
209 227 245 251 260 263 278 348 306 269 252 297 280 270 252 225 238 196 152 195 182 172 175 165 160 157 160 160 160 165 170 175 182 184 184 182 188 193 198 200 206 209 215 220
210 221 237 250 255 259 326 350 254 252 314 2 307 275 243 237 292 28 174 184 177 172 166 156 152 152 158 159 160 168 172 179 182 181 182 181 186 194 195 193 200 212 221 224
235 238 235 244 251 255 34 183 262 318 335 317 308 290 250 243 250 167 180 178 175 171 164 159 155 152 157 162 166 173 179 179 182 183 188 192 194 198 188 195 207 217 228 226
245 268 267 258 269 343 349 296 309 313 305 306 300 292 252 235 228 212 184 178 178 174 169 167 163 158 163 171 176 177 180 183 186 191 195 201 203 204 199 207 211 216 226 241
259 286 265 261 272 308 315 319 317 306 304 305 294 277 251 240 231 216 194 178 174 174 173 173 169 168 171 177 180 183 185 187 188 191 197 203 208 211 206 221 224 229 232 243
293 281 263 259 282 298 296 306 307 303 299 298 285 266 250 235 224 211 200 190 183 181 182 181 181 177 175 178 179 185 189 189 194 199 203 210 217 220 219 224 232 236 242 254
270 272 267 272 294 293 298 304 300 290 287 285 274 259 243 232 218 205 198 193 186 182 179 182 185 185 185 187 188 191 194 197 202 208 212 218 218 220 230 227 224 219 247 196
Height
1496 1493 1488 1485 1485 1485 1485 1487 1488 1486 1487 1489 1488 1488 1488 1491 1494 1495 1497 1499 1501 1504 1506 1508 1509 1510 1511 1512 1512 1513 1515 1516 1517 1519 1519 1520 1521 1521 1522 1523 1523 1524 1525 1525
1492 1488 1484 1484 1485 1486 1486 1487 1486 1485 1487 1489 1487 1486 1485 1488 1490 1492 1494 1496 1498 1501 1503 1505 1506 1508 1509 1509 1510 1511 1513 1514 1516 1517 1518 1519 1520 1521 1521 1522 1522 1523 1524 1524
1486 1482 1483 1485 1485 1486 1484 1485 1484 1486 1485 1486 1488 1486 1482 1484 1487 1490 1491 1493 1495 1498 1500 1502 1504 1505 1506 1507 1508 1509 1511 1512 1514 1515 1517 1518 1518 1519 1520 1521 1521 1522 1522 1523
1482 1481 1484 1484 1483 1483 1484 1480 1482 1484 1487 1482 1485 1487 1478 1478 1482 1485 1487 1489 1492 1494 1497 1499 1501 1503 1504 1505 1506 1508 1509 1510 1512 1513 1515 1516 1517 1518 1519 1520 1520 1520 1521 1521
1480 1479 1482 1482 1481 1482 1481 1480 1481 1482 1483 1483 1480 1486 1476 1475 1479 1479 1483 1486 1488 1491 1494 1497 1498 1500 1502 1503 1505 1506 1507 1509 1510 1512 1513 1514 1516 1517 1518 1519 1519 1519 1520 1520
1478 1479 1480 1479 1480 1481 1481 1482 1480 1479 1478 1488 1479 1484 1478 1471 1474 1475 1479 1483 1486 1489 1492 1494 1496 1498 1500 1501 1503 1504 1505 1507 1509 1510 1512 1513 1514 1515 1516 1517 1518 1518 1519 1519
1477 1476 1478 1479 1479 1480 1480 1483 1487 1486 1485 1482 1474 1480 1476 1469 1471 1475 1477 1481 1484 1486 1489 1491 1494 1495 1497 1499 1501 1502 1504 1505 1507 1509 1510 1511 1512 1513 1514 1516 1517 1517 1518 1518
1480 1478 1475 1476 1477 1477 1477 1480 1489 1493 1486 1476 1473 1477 1469 1468 1473 1476 1477 1479 1482 1484 1486 1488 1491 1493 1494 1496 1498 1500 1501 1503 1505 1507 1508 1509 1510 1512 1513 1514 1515 1516 1517 1517
1478 1478 1472 1475 1475 1475 1476 1475 1473 1479 1478 1480 1472 1469 1467 1469 1471 1473 1475 1477 1479 1481 1483 1486 1488 1490 1492 1494 1496 1498 1499 1501 1503 1505 1506 1506 1508 1509 1511 1512 1513 1514 1515 1516
1475 1481 1472 1473 1474 1474 1473 1472 1476 1480 1489 1486 1473 1469 1466 1467 1468 1470 1473 1475 1477 1479 1482 1484 1486 1488 1490 1492 1494 1496 1498 1499 1501 1502 1504 1505 1506 1507 1509 1510 1511 1512 1513 1514
1474 1480 1474 1472 1473 1472 1475 1475 1475 1474 1476 1482 1481 1471 1459 1463 1465 1468 1470 1473 1475 1477 1479 1482 1484 1486 1488 1491 1492 1494 1496 1497 1499 1501 1502 1503 1504 1506 1507 1508 1509 1510 1511 1511
1475 1476 1475 1470 1467 1468 1469 1470 1473 1481 1479 1475 1476 1472 1460 1463 1465 1468 1470 1472 1474 1476 1478 1480 1482 1485 1487 1489 1491 1492 1494 1496 1497 1499 1500 1501 1502 1504 1505 1506 1507 1508 1509 1509
1476 1479 1482 1474 1473 1470 1470 1469 1469 1470 1473 1474 1477 1471 1462 1464 1466 1468 1470 1472 1473 1475 1477 1478 1481 1483 1485 1487 1489 1491 1492 1494 1495 1497 1498 1499 1500 1502 1503 1504 1505 1506 1507 1508
1476 1475 1477 1479 1471 1466 1469 1468 1467 1469 1472 1471 1468 1465 1461 1463 1464 1467 1469 1470 1472 1474 1475 1477 1479 1481 1483 1485 1487 1489 1490 1492 1494 1495 1496 1497 1498 1500 1501 1502 1503 1504 1505 1505
1475 1473 1469 1466 1463 1463 1464 1464 1464 1466 1465 1466 1462 1461 1460 1461 1463 1466 1467 1469 1471 1473 1474 1475 1477 1479 1481 1483 1485 1487 1488 1490 1491 1493 1495 1496 1497 1498 1499 1500 1501 1502 1503 1504
1475 1473 1469 1467 1462 1461 1462 1459 1459 1460 1460 1460 1459 1459 1457 1459 1462 1465 1466 1468 1470 1471 1472 1474 1475 1477 1479 1481 1483 1485 1487 1488 1489 1491 1493 1494 1495 1496 1497 1498 1499 1500 1500 1501
1470 1472 1471 1466 1459 1461 1461 1454 1454 1456 1455 1456 1458 1457 1457 1459 1461 1463 1465 1466 1468 1469 1471 1472 1473 1475 1476 1478 1481 1483 1484 1486 1487 1489 1491 1492 1493 1495 1496 1497 1497 1497 1498 1498
1470 1470 1467 1464 1465 1471 1455 1450 1451 1453 1453 1453 1454 1455 1457 1459 1461 1462 1464 1465 1466 1468 1469 1470 1472 1474 1475 1477 1479 1481 1483 1484 1486 1487 1489 1490 1492 1493 1494 1494 1495 1495 1496 1496
1468 1468 1466 1465 1464 1457 1451 1451 1452 1454 1453 1454 1454 1456 1457 1458 1459 1460 1462 1464 1465 1466 1467 1469 1470 1472 1473 1475 1477 1479 1481 1483 1484 1486 1487 1488 1490 1491 1492 1492 1493 1493 1493 1494
1464 1465 1465 1463 1466 1462 1454 1451 1453 1454 1454 1453 1455 1456 1457 1457 1455 1457 1461 1463 1464 1465 1466 1467 1469 1470 1472 1473 1475 1477 1479 1481 1482 1484 1486 1487 1488 1489 1490 1490 1490 1491 1491 1491
1462 1463 1462 1461 1461 1453 1452 1453 1454 1459 1457 1456 1455 1456 1457 1458 1458 1460 1460 1461 1462 1463 1465 1466 1467 1469 1471 1472 1474 1476 1478 1479 1481 1483 1484 1486 1486 1487 1488 1488 1488 1489 1489 1490
1456 1455 1457 1457 1459 1458 1453 1453 1456 1457 1457 1456 1456 1457 1457 1458 1459 1459 1460 1460 1461 1462 1463 1465 1466 1468 1470 1472 1473 1475 1477 1478 1480 1481 1482 1484 1484 1485 1486 1486 1486 1487 1487 1487
1455 1455 1453 1454 1456 1455 1455 1456 1457 1458 1457 1457 1456 1456 1457 1457 1458 1458 1459 1459 1460 1461 1463 1464 1465 1467 1468 1470 1472 1473 1475 1476 1478 1479 1480 1481 1482 1483 1484 1484 1485 1485 1485 1485
1456 1457 1455 1454 1452 1454 1456 1456 1457 1457 1457 1456 1456 1455 1455 1455 1456 1457 1458 1458 1459 1461 1462 1463 1464 1466 1467 1469 1470 1472 1473 1475 1476 1477 1478 1479 1480 1481 1482 1482 1483 1483 1483 1483
1460 1458 1456 1454 1454 1455 1455 1456 1456 1455 1455 1454 1453 1454 1454 1453 1454 1455 1456 1457 1458 1459 1460 1462 1463 1464 1466 1467 1469 1470 1471 1472 1473 1475 1476 1477 1478 1479 1479 1480 1480 1480 1480 1480
1461 1461 1459 1455 1456 1456 1455 1455 1454 1453 1452 1452 1451 1451 1452 1452 1452 1453 1454 1455 1456 1457 1458 1460 1461 1463 1464 1466 1467 1468 1469 1470 1471 1472 1473 1475 1475 1476 1476 1477 1477 1477 1477 1477